Location: Baia Mare
(47.6567°N, 23.5850°E)
Time: 13:09:13
(UTC+02:00)

ISS - Pass Details

Date: 05 January 2019
Orbit: 404 x 407 km, 51.6° (Epoch: 17 January)

Event Time Altitude Azimuth Distance (km) Brightness Sun altitude
Exits shadow 07:13:16 15° 297° (WNW) 1,229 -2.1 -9.8°
Maximum altitude 07:15:58 70° 20° (NNE) 438 -3.7 -9.4°
Drops below altitude 10° 07:19:15 10° 105° (ESE) 1,468 0.6 -8.9°
Sets 07:21:20 0° 108° (ESE) 2,325 2.3 -8.6°
